National Weather Service Raw Text Product

Displaying AFOS PIL: RWRLUB Received: 2019-02-18 02:00 UTC


906 
ASUS44 KLUB 180210
RWRLUB
WEST TEXAS WEATHER ROUNDUP
NATIONAL WEATHER SERVICE LUBBOCK TX
800 PM CST SUN FEB 17 2019

NOTE: "FAIR" INDICATES FEW OR NO CLOUDS BELOW 12,000 FEET WITH NO
SIGNIFICANT WEATHER AND/OR OBSTRUCTIONS TO VISIBILITY.

TXZ004-006>008-010-012-014-016-OKZ002-180300-
TEXAS PANHANDLE/OKLAHOMA PANHANDLE
  
CITY           SKY/WX    TMP DP  RH WIND       PRES   REMARKS
AMARILLO       CLOUDY    43  17  35 SE16      29.95R                  
BORGER         CLOUDY    43  16  33 E16G23    30.00R                  
CANADIAN       CLEAR     35  20  53 E9        30.05R WCI  28          
DALHART        CLOUDY    41  14  33 E15       29.92R                  
DUMAS          CLOUDY    40  14  34 E20G30    29.95  WCI  31          
GUYMON         CLEAR     31  15  52 NE15      30.00R WCI  20          
HEREFORD       CLOUDY    45  22  40 SE8       29.91                   
PAMPA          CLOUDY    37  18  45 E15       30.01  WCI  28          
PERRYTON       CLEAR     31  18  56 E14       30.02  WCI  21          
$$

TXZ026-029-035-045-048-180300-
SOUTHERN PANHANDLE/SOUTH PLAINS/ROLLING PLAINS
  
CITY           SKY/WX    TMP DP  RH WIND       PRES   REMARKS
CHILDRESS      CLEAR     43  18  36 E9        30.04R                  
SEMINOLE       CLEAR     46  19  35 SE7       29.96                   
LUBBOCK        MOCLDY    44  19  36 SE16      29.93R                  
PLAINVIEW      CLOUDY    43  18  36 E16G26    29.94R                  
SNYDER         PTCLDY    44  22  42 E10       29.99                   
$$

TXZ052-054-060>062-072-078-127-140-154-169-180300-
PERMIAN BASIN/CONCHO VALLEY/BIG COUNTRY/EDWARDS PLATEAU  
  
CITY           SKY/WX    TMP DP  RH WIND       PRES   REMARKS
ABILENE        PTCLDY    43  27  53 NE7       30.02R                  
BIG SPRING     CLOUDY    46  24  42 E16       29.98                   
BRADY          CLOUDY    45  30  57 NE6       29.99                   
BROWNWOOD      PTCLDY    46  28  49 NE6       30.01R                  
JUNCTION       PTCLDY    50  32  50 E6        29.97R                  
MIDLAND        CLOUDY    49  23  36 E12       29.93R                  
ODESSA         CLOUDY    49  21  33 SE12      29.93R                  
SAN ANGELO     CLEAR     44  28  53 E8        29.97R                  
SONORA         CLEAR     52  27  37 NE7       29.99R                  
SWEETWATER     CLOUDY    43  24  46 E10       30.02                   
WINK           CLOUDY    48  20  32 SE7       29.91R                  
$$

TXZ055-058-074-075-080-082-180300-
FAR WEST/SOUTHWEST MOUNTAINS/TRANS PECOS
  
CITY           SKY/WX    TMP DP  RH WIND       PRES   REMARKS
ALPINE         CLOUDY    51  18  27 NE3       30.00R                  
DRYDEN           N/A     52  24  33 E3        29.89R                  
EL PASO        PTCLDY    55   3  12 NW9       29.88R                  
FORT STOCKTON  CLOUDY    53  22  29 E7        29.93R                  
GUADALUPE PASS CLEAR     44   7  21 W15       29.93R                  
MARFA          CLOUDY    48  15  26 N6        29.95R                  
PECOS          CLOUDY    51  19  28 E5        29.92R                  
PRESIDIO       FAIR      63  22  20 W5        29.86R                  
$$

TXZ014-016-019-021>030-083-180300
TEXAS TECH WEST TEXAS MESONET/TEXAS PANHANDLE/NORTHERN SOUTH PLAINS
  
CITY           SKY/WX    TMP DP  RH WIND       PRES   REMARKS
ABERNATHY 5ENE   N/A     44  19  37 E17       29.95R                  
AMARILLO 9NNE    N/A     44  19  36 SE15      29.95R                  
AMARILLO 7SSE    N/A     43  17  36 SE18      29.96R                  
AMHERST 1NE      N/A     45  19  34 E17       29.91R                  
BOOTLEG 11WNW    N/A     39  13  34 E7        29.92R WCI  34          
CANADIAN 6E      N/A     32  18  56 NE12      30.03R WCI  23          
CAPROCK CYN SP   N/A     41  18  39 E12       30.01R                  
CHILDRESS 2NNE   N/A     39  19  45 E12       30.04R WCI  32          
CLARENDON 2WSW   N/A     44  18  35 E13       30.02R                  
CLAUDE 12SW      N/A     42  18  37 E18       29.97R                  
DIMMITT 2NE      N/A     45  21  39 SE8       29.92R                  
FLOYDADA 2NNE    N/A     41  18  40 E12       29.97R                  
FRIONA 2NE       N/A     45  18  33 SE13      29.91R                  
GOODLETT 3W      N/A     40  19  42 E10       30.05R WCI  33          
HART 3N          N/A     44  19  36 E13       29.93R                  
HEREFORD 2NW     N/A     45  18  33 S16       29.91R                  
MCLEAN 1E        N/A     36  15  42 E10       30.01R WCI  29          
MEMPHIS 1NE      N/A     41  19  40 E6        30.03R                  
MULESHOE 2SSW    N/A     46  16  30 E10       29.90R                  
OLTON 6S         N/A     45  17  33 E17       29.93R                  
PALO DURO SP     N/A     44  18  35 SE10      29.97R                  
PAMPA 2E         N/A     34  18  52 NE12      30.01R WCI  25          
PLAINVIEW 1S     N/A     44  20  38 E13G24    29.94R                  
SILVERTON 7ESE   N/A     40  18  40 E15       29.99R WCI  32          
TULIA 2ENE       N/A     42  21  42 E18       29.96R                  
TURKEY 2WSW      N/A     41  19  41 E9        30.00R                  
UMBARGER 3NNE    N/A     42  19  38 E16       29.94R                  
$$

TXZ033>036-039>041-045>048-180300
TEXAS TECH WEST TEXAS MESONET/SOUTH PLAINS  
  
CITY           SKY/WX    TMP DP  RH WIND       PRES   REMARKS
AIKEN 3WSW       N/A     43  19  38 E20       29.97R                  
ANDREWS 2NE      N/A     43  19  38 SE7       29.93R                  
ANTON 6SSW       N/A     44  17  33 E16       29.92R                  
BROWNFIELD 2S    N/A     43  19  38 E12       29.93R                  
DENVR CTY 7WNW   N/A     42  16  35 S8        29.91R                  
GAIL 2ESE        N/A     44  21  39 E10       29.97R                  
LAMESA 2SE       N/A     44  21  39 E13       29.95R                  
LUBBOCK 3WNW     N/A     45  18  33 E15       29.94R                  
MORTON 1ENE      N/A     45  14  29 SE12      29.89R                  
ODONNELL 1N      N/A     43  17  34 E14       29.95R                  
PLAINS 3N        N/A     43  18  36 SE10      29.91R                  
RALLS 1SE        N/A     40  18  40 E14       29.96S WCI  33          
REESE CENTER     N/A     45  18  34 E18       29.93R                  
SEAGRAVES 1SW    N/A     44  20  37 SE7       29.92R                  
SEMINOLE 2NNE    N/A     45  19  35 SE12      29.92R                  
SLATON 2NE       N/A     42  19  40 E13       29.95R                  
SNYDER 3E        N/A     42  23  46 E9        29.98R                  
SUNDOWN 8SW      N/A     44  18  34 SE16      29.91R                  
TAHOKA 3NNE      N/A     43  18  36 E9        29.94R                  
WOLFFORTH 6SSW   N/A     42  19  39 E14       29.94R                  
$$

TXZ031-032-036>038-042>044-180300-
TEXAS TECH WEST TEXAS MESONET/ROLLING PLAINS 
  
CITY           SKY/WX    TMP DP  RH WIND       PRES   REMARKS
ASPERMONT 3NE    N/A     43  24  47 E9        30.02S                  
FLUVANNA 3WNW    N/A     41  20  43 E10       29.97R                  
GRAHAM 5SSW      N/A     45  19  36 E16       29.95R                  
GUTHRIE 10WSW    N/A     43  21  41 E10       30.01R                  
HASKELL 1NW      N/A     43  26  52 E7        30.03F                  
JAYTON 1SSE      N/A     43  23  44 E12       30.00S                  
KNOX CITY 3NW    N/A     42  25  51 E8        30.04F                  
LK A HENRY 1NW   N/A     44  23  42 E7        29.98R                  
NORTHFIELD 1S    N/A     40  18  40 E9        30.02R WCI  34          
ODELL 4ENE       N/A     41  21  45 E8        30.09R                  
PADUCAH 10SW     N/A     40  21  46 E9        30.02R WCI  35          
POST 1NE         N/A     43  19  38 E9        29.97R                  
RRING SPRGS 3N   N/A     40  22  49 E10       30.00R WCI  34          
SEYMOUR 3NW      N/A     42  27  55 E6        30.07R                  
SPUR 1W          N/A     44  19  37 E10       29.98S                  
WEINERT 2NNE     N/A     43  25  49 E9        30.05S                  
WHITE RVR 6NE    N/A     42  18  37 E12       29.97R                  
$$

TXZ052-054-060>062-072-078-127-140-154-169-180300-
TEXAS TECH WEST TEXAS MESONET/PERMIAN BASIN/
CONCHO VALLEY/BIG COUNTRY/EDWARDS PLATEAU
  
CITY           SKY/WX    TMP DP  RH WIND       PRES   REMARKS
COYANOSA 2N      N/A     50  21  32 E5        29.93R                  
MERTZON 3NNE     N/A     46  28  48 E3        29.99R                  
SAN ANGELO 7NW   N/A     46  26  46 N2        29.99R                  
STRLNG CT 4WSW   N/A     47  26  44 E8        29.99R                  
ST LAWRNCE 5SW   N/A     49  23  36 E12       29.96R                  
SWEETWATR 11SW   N/A     40  24  52 E10       30.00R WCI  34          
WALL 1E          N/A     44  26  49 E8        30.01R                  
$$

TXZ055-058-074-075-080-082-180300-
TEXAS TECH WEST TEXAS MESONET/FAR WEST/SOUTHWEST MOUNTAINS/TRANS PECOS
  
CITY           SKY/WX    TMP DP  RH WIND       PRES   REMARKS
PRSMN GAP BBNP   N/A     59  19  20 N15       29.88R                  
GUADLPE MTN NP   N/A     43   8  23 W1        29.94R                  
$$